RH
16 13 10 8 7 6 6 4 3 2 3 4 6 8 8 8 9 8 6 4 3 3 3 4 5 8 15
14 11 10 8 6 4 2 3 6 8 12 13 14 16 18 20 20 20 18 16 13 10 5 4 6 9 13
12 10 8 4 3 4 9 16 16 15 15 19 28 34 39 39 39 37 30 28 24 21 16 8 5 7 11
10 6 3 4 10 19 19 18 22 28 26 26 30 38 45 51 56 66 68 62 50 43 38 22 12 6 7
4 3 11 24 23 19 20 24 34 47 58 58 54 47 46 55 56 50 44 40 36 37 48 45 27 14 8
5 20 27 20 23 28 30 32 39 60 72 87 85 69 56 55 54 46 39 34 35 35 30 26 29 22 14
28 27 20 27 27 28 34 37 40 44 53 47 35 31 44 44 38 34 41 38 23 18 23 29 25 19 15
28 28 32 32 37 42 42 51 48 51 51 40 28 16 15 18 24 26 22 19 18 19 19 18 19 15 19
28 32 43 49 45 41 48 49 50 63 64 54 31 15 15 21 25 31 37 46 62 81 84 70 70 46 31
29 38 52 47 41 42 52 52 62 75 78 68 43 20 18 36 44 74 96 100 99 100 100 98 100 100 82
33 36 48 49 45 40 52 57 53 91 99 82 60 31 27 45 88 100 100 100 96 99 99 100 100 100 97
39 38 42 48 42 37 52 48 39 90 100 98 74 59 29 62 77 100 100 94 86 89 90 91 95 92 84
32 40 44 49 44 43 55 47 34 81 100 100 94 71 34 59 82 93 97 94 82 84 78 70 64 61 61
38 44 56 55 53 63 59 47 42 40 72 69 62 53 35 50 80 93 98 94 97 88 77 69 58 52 52
49 53 61 59 59 85 65 50 57 44 51 64 57 48 32 32 65 96 100 100 90 86 78 75 64 83 82
72 67 63 64 62 90 74 53 72 65 78 82 79 49 29 31 52 97 99 90 84 81 76 65 76 100 95
81 68 63 67 73 89 88 62 91 92 100 100 100 79 56 35 54 63 88 100 97 94 93 71 74 100 92
Wind_Speed
86 88 91 95 99 104 109 113 113 105 97 89 82 78 75 73 70 69 70 73 76 76 79 91 97 96 89
89 94 100 105 108 110 101 89 79 76 75 73 70 66 62 61 61 60 58 59 59 61 66 85 99 102 99
95 103 107 105 94 82 71 68 69 67 63 61 57 55 54 55 57 60 59 59 60 59 60 65 91 101 105
103 103 91 75 68 65 63 60 53 52 50 50 52 53 54 56 58 60 63 65 66 65 65 63 67 85 99
95 76 61 58 60 59 55 51 52 55 55 53 52 51 54 59 61 64 67 68 69 71 71 72 70 70 82
67 54 54 55 53 54 53 54 52 56 58 55 58 57 61 64 65 65 64 63 64 65 66 70 72 70 75
52 52 50 49 50 50 52 53 52 54 58 57 59 57 56 58 60 60 59 57 54 53 53 55 59 62 67
49 46 46 46 50 52 51 52 52 54 58 59 53 52 49 46 46 46 46 45 43 42 42 44 48 53 59
44 44 43 44 46 48 51 49 54 53 54 59 53 49 42 38 38 38 37 36 34 34 36 40 43 45 51
41 43 42 43 46 51 51 50 55 51 50 55 53 48 37 31 30 31 32 32 31 31 35 36 38 39 43
42 42 43 46 48 51 53 53 53 50 51 53 50 44 37 24 26 29 31 31 31 32 32 33 37 39 41
43 43 44 47 50 50 51 51 49 49 48 51 49 46 35 25 22 29 32 31 31 31 32 33 35 37 39
41 42 45 48 48 47 47 47 45 46 48 48 48 46 36 28 25 27 31 32 32 32 33 34 37 38 40
41 44 48 46 43 44 42 42 42 40 42 44 44 39 34 29 28 26 30 31 32 34 35 35 36 37 38
45 46 47 45 43 43 40 39 42 39 35 41 43 36 32 29 27 28 30 31 33 35 35 32 31 31 31
44 45 45 43 40 40 39 37 39 39 40 40 41 39 32 27 26 28 32 32 33 33 31 31 29 33 30
44 45 43 40 39 39 36 34 37 39 41 42 39 39 36 25 26 29 30 30 31 30 31 29 31 35 34
Wind_Direction
301 300 299 298 298 298 298 296 295 292 290 288 286 285 283 280 278 275 272 268 263 256 240 237 239 240 237
302 302 302 303 303 302 299 294 292 291 290 288 286 284 281 277 275 273 270 268 264 256 243 234 232 230 230
306 307 307 308 303 298 297 297 296 295 293 290 286 282 279 276 270 267 265 264 263 260 254 241 235 232 229
311 311 308 300 297 297 297 299 301 304 304 300 291 285 280 275 271 269 264 262 261 260 260 256 244 239 234
313 307 300 298 298 298 300 301 304 306 303 303 298 294 287 280 275 272 270 266 263 260 258 258 256 245 240
307 303 300 301 299 302 302 302 303 302 301 298 294 291 285 280 276 274 272 269 265 262 259 255 254 249 241
303 303 305 303 301 302 304 304 304 306 302 300 298 290 284 281 278 275 272 270 267 264 258 254 252 246 240
305 306 306 306 307 307 307 307 309 309 306 312 305 297 291 285 279 274 270 267 264 261 255 249 246 241 237
303 306 308 312 314 318 314 311 312 311 311 314 315 304 297 289 280 271 268 266 263 259 254 249 246 242 238
301 304 305 310 315 319 318 315 313 312 312 315 320 309 301 291 275 265 263 262 259 253 251 250 248 245 240
301 302 301 304 311 316 318 317 317 312 312 313 320 315 302 286 268 264 260 259 257 255 252 249 247 244 240
301 300 300 303 309 314 317 317 318 311 310 311 317 318 300 287 265 261 262 260 259 256 253 248 245 244 241
303 304 306 306 306 310 314 318 327 314 308 310 313 314 301 285 270 260 260 262 262 258 254 251 249 246 244
301 305 310 311 306 308 311 318 328 325 314 317 318 314 303 283 275 269 265 264 264 264 262 262 257 248 244
301 305 310 311 308 307 307 316 324 333 325 325 330 319 308 290 275 268 262 263 268 267 266 263 254 242 241
301 304 308 309 307 306 303 313 321 327 331 325 329 333 319 303 282 269 267 269 273 272 270 265 246 240 239
302 305 306 306 307 307 302 308 318 322 325 325 323 330 332 315 285 275 265 269 270 269 264 260 242 235 237